Theta_e
315 315 314 313 311 310 308 308 307 307 305 304 303 302 302 301 300 299 298 296 294 293
313 313 312 312 312 311 310 308 306 306 304 304 303 302 301 298 298 299 297 295 294 293
310 312 312 312 310 309 308 307 305 302 301 300 301 301 299 295 292 295 294 297 293 291
297 303 308 309 309 306 301 300 301 299 293 294 294 294 297 296 295 294 293 293 293 291
291 293 292 294 295 301 301 301 299 297 296 295 295 295 297 294 294 294 292 291 291 291
287 289 288 287 289 292 298 297 295 297 297 297 294 294 295 295 292 293 292 291 290 289
284 286 286 287 287 288 289 292 294 295 294 294 293 292 291 290 290 290 291 290 291 291
280 284 285 286 286 287 287 287 288 288 289 289 290 290 289 290 290 290 289 289 290 290
278 279 282 283 285 286 286 286 287 286 288 287 286 292 293 291 289 289 289 288 288 289
277 278 279 281 282 282 284 285 286 286 286 286 286 293 293 291 288 288 288 288 288 287
276 276 278 279 279 280 282 282 283 285 285 285 286 292 293 290 288 288 288 288 288 288
272 273 275 276 276 278 280 281 282 283 283 284 285 290 292 289 286 286 286 287 287 288
271 272 271 271 274 276 278 279 280 281 281 282 283 287 289 288 286 285 284 285 286 286
271 271 270 271 272 272 272 274 276 278 279 280 281 283 287 289 286 285 284 284 284 285
Wind_Speed
15 12 12 14 12 10 9 10 12 13 12 11 5 8 10 10 10 10 8 10 5 3
11 13 11 12 11 12 12 10 13 13 13 13 13 7 5 4 8 11 10 10 8 5
8 10 11 10 11 11 11 11 14 16 13 14 14 14 11 5 2 5 6 8 9 6
6 7 11 10 10 9 8 9 9 10 10 12 12 12 13 11 10 6 5 3 9 9
8 10 9 7 6 10 10 11 12 11 12 12 10 11 13 12 10 12 10 7 5 7
11 11 10 8 6 4 7 7 7 9 11 13 14 11 9 9 9 10 10 11 9 5
12 11 11 9 8 6 3 6 6 6 7 8 9 11 11 11 10 9 9 9 10 9
11 12 11 11 10 8 7 5 4 4 3 6 6 7 10 10 11 11 9 8 8 9
12 12 12 11 10 9 9 7 6 3 5 5 3 8 11 9 9 8 10 10 9 9
12 13 12 11 11 11 9 7 8 6 5 3 3 11 13 12 6 8 6 7 7 6
12 13 11 11 11 9 7 8 6 6 5 4 3 3 10 12 6 5 6 7 9 9
10 10 9 11 10 8 7 7 7 4 6 5 4 4 4 8 4 4 5 5 6 8
8 10 10 8 8 6 4 6 5 6 6 6 4 7 3 6 3 3 3 3 4 8
9 10 8 6 5 5 5 6 7 6 6 6 6 5 5 2 4 4 4 4 3 3
Wind_Direction
182 174 171 161 154 152 164 180 176 162 158 137 148 159 182 195 189 178 180 174 163 139
174 167 165 161 169 151 159 170 162 158 159 150 145 151 167 208 189 186 178 175 168 163
151 154 149 147 147 152 151 164 168 160 160 160 168 166 171 181 149 181 195 188 176 164
70 124 138 149 144 144 135 144 163 160 143 158 163 169 179 176 169 185 173 228 183 188
58 64 72 77 100 142 156 166 163 161 159 158 168 169 184 174 167 179 172 183 196 193
53 60 60 57 57 86 136 146 142 155 170 173 169 170 182 181 176 186 188 183 183 201
44 47 49 44 48 48 78 137 143 163 156 174 180 167 172 168 179 189 191 180 187 173
35 42 45 43 40 33 50 62 82 99 114 138 181 167 169 175 178 182 179 184 180 188
41 44 39 37 35 36 36 34 50 68 129 132 143 166 183 178 170 184 179 187 183 171
42 44 37 36 35 33 27 31 40 34 45 64 113 166 168 169 159 168 172 166 161 154
40 43 34 38 36 28 23 28 31 29 41 49 8 163 175 165 160 162 163 181 162 167
38 45 41 39 29 24 17 25 26 26 28 35 25 34 178 139 122 148 164 174 148 165
32 40 39 32 27 18 8 21 22 31 19 21 16 6 348 149 133 132 117 133 152 167
30 40 32 26 28 18 31 33 24 25 17 14 7 348 316 256 159 155 162 168 164 172